Location: Hopewell Observatory
(38.8698°N, 77.6988°W)
Time: 20:14:09
(UTC-04:00)

Daily predictions for brighter satellites

Satellite Brightness Start Highest point End
(mag) Time Altitude Azimuth Time Altitude Azimuth Time Altitude Azimuth
Cosmos 1340 Rocket 3.9 20:51:08 10° SSW 20:55:01 51° WNW 20:58:58 10° N
Cosmos 2074 Rocket 4.0 20:53:58 10° S 21:00:15 84° E 21:06:33 10° N
Cosmos 1452 Rocket 3.8 20:58:24 10° S 21:03:23 46° ESE 21:08:25 10° NNE
H-2A R/B 3.1 20:59:48 10° S 21:03:28 66° WSW 21:07:12 10° NNW
Cosmos 1782 2.9 21:01:12 10° N 21:05:12 58° E 21:09:11 10° SSE
Cosmos 1356 Rocket 4.2 21:02:31 10° SSW 21:06:42 60° W 21:10:58 10° N
Cosmos 1674 Rocket 3.6 21:02:50 10° N 21:07:16 63° E 21:11:39 10° SSE
Cosmos 1190 Rocket 4.0 21:02:47 10° NNW 21:08:00 80° ENE 21:13:12 10° SSE
ATLAS 5 CENTAUR R/B 2.9 21:03:31 10° NW 21:09:31 61° WSW 21:15:52 10° SSE
Cosmos 1610 Rocket 4.5 21:04:07 10° S 21:10:12 69° E 21:16:24 10° NNE
USA 186 2.7 21:07:54 10° S 21:10:56 48° W 21:14:09 10° NNW
Okean 2 Rocket 4.4 21:08:07 10° SE 21:11:27 21° E 21:14:47 10° NE
Atlas Centaur 2 2.7 21:10:21 10° SW 21:13:00 19° S 21:15:19 11° SE
SL-08 ROCKET BODY 4.5 21:08:26 10° S 21:14:27 86° W 21:20:25 10° N
CENTAUR R/B 3.8 21:08:44 10° NW 21:16:25 53° WSW 21:24:25 10° S
OAO 3 Rocket 4.3 21:12:26 10° SW 21:16:35 27° SSE 21:20:22 12° ESE
Resurs 01 Rocket 4.4 21:14:17 10° SW 21:16:56 16° W 21:19:36 10° NW
Nadezhda 3 Rocket 4.3 21:12:25 10° N 21:18:37 51° E 21:24:47 10° SSE
Cosmos 1939 Rocket 3.1 21:16:52 10° SSE 21:20:35 51° ENE 21:24:25 10° N
Meteor 2-6 Rocket 4.3 21:15:43 10° N 21:21:42 86° E 21:27:30 10° S
Cosmos 1782 Rocket 4.3 21:18:07 10° SSE 21:22:08 34° E 21:26:11 10° NNE
Cosmos 1242 Rocket 4.3 21:19:30 10° NNE 21:22:10 19° ENE 21:23:49 14° ESE
Cosmos 1184 Rocket 3.7 21:19:36 11° SSE 21:22:19 30° E 21:25:17 10° NNE
Sich 1 Rocket 3.6 21:18:21 10° S 21:22:56 81° E 21:27:32 10° N
ISS -3.2 21:19:52 10° SW 21:23:07 77° NW 21:26:22 10° NE
YAOGAN 6 4.3 21:21:31 13° ESE 21:23:10 18° ENE 21:25:34 10° NNE
Cosmos 1408 3.0 21:21:11 10° SSE 21:24:39 41° E 21:28:06 10° NNE
Cosmos 1238 Rocket 3.3 21:22:24 10° NNE 21:25:32 35° E 21:28:10 16° SE
SPOT 5 3.6 21:25:17 14° SE 21:29:36 44° ENE 21:34:39 10° N
COSMOS 2406 4.2 21:25:47 10° NW 21:31:13 45° WSW 21:36:35 10° S
Cosmos 1833 Rocket 4.4 21:28:26 10° N 21:32:20 19° NE 21:35:46 12° E
Cosmos 2278 Rocket 2.1 21:29:25 10° SSW 21:35:03 72° ESE 21:40:44 10° NNE
Cosmos 1825 2.2 21:31:30 10° S 21:35:15 61° E 21:39:02 10° NNE
Cosmos 1844 Rocket 3.5 21:30:04 10° SW 21:35:35 54° WNW 21:41:08 10° NNE
Cosmos 2084 3.6 21:34:07 10° SW 21:37:57 64° NW 21:41:46 10° NNE
Cosmos 1975 Rocket 3.5 21:34:11 10° N 21:38:17 41° ENE 21:40:50 20° SE
Cosmos 676 Rocket 4.0 21:33:39 10° NNW 21:38:53 90° S 21:43:24 14° SSE
Cosmos 1174 3.1 21:36:42 10° NNW 21:39:50 75° WSW 21:41:30 24° SSE
Cosmos 1844 4.1 21:34:53 10° SSW 21:40:37 68° WNW 21:46:25 10° NNE
BREEZE-M DEB (TANK) 3.4 21:39:56 10° W 21:41:55 30° SSW 21:43:47 18° SSE
Cosmos 1954 Rocket 4.0 21:37:38 10° NNW 21:42:52 76° ENE 21:46:48 18° SSE
Cosmos 2341 Rocket 4.0 21:38:02 10° S 21:44:17 72° E 21:50:31 10° NNE
Cosmos 1908 Rocket 3.8 21:42:22 10° SSW 21:46:45 70° W 21:51:11 10° N
Cosmos 1378 Rocket 3.5 21:44:40 10° N 21:49:01 90° SSE 21:52:23 16° S
COS B Rocket 3.1 21:45:11 10° N 21:49:11 90° ESE 21:51:57 16° S
Intercosmos 25 3.6 21:47:58 27° SE 21:49:15 37° E 21:52:13 10° NNE
SL-8 Rocket 4.2 21:49:49 15° SSE 21:54:45 50° E 22:00:44 10° NNE
Cosmos 962 Rocket 4.4 21:49:30 10° S 21:55:39 87° E 22:01:55 10° N
Cosmos 2082 Rocket 3.1 21:50:58 10° N 21:56:11 35° ENE 21:58:58 23° ESE
Cosmos 1741 Rocket 4.4 21:52:46 10° N 21:57:51 48° ENE 22:00:21 27° SE
Nimbus 7 Rocket 4.4 21:52:38 10° NNE 21:58:36 87° WNW 22:04:36 10° SSW
deb Chang Zheng 4 4.1 21:54:33 10° N 21:58:56 64° WNW 22:03:19 10° SSW
Timation 2 Rocket 3.9 21:54:54 10° NNW 22:00:52 64° ENE 22:04:13 26° SE
Cosmos 1023 Rocket 4.4 21:57:30 10° NNW 22:02:38 76° ENE 22:05:25 28° SSE
USA 245 3.5 22:05:04 38° ESE 22:05:45 44° ENE 22:09:38 10° N
GPS 2-05 Rocket1 3.1 22:03:17 10° WSW 22:06:54 51° S 22:07:26 46° SSE
Cosmos 2297 3.6 22:05:41 10° SSW 22:11:20 72° ESE 22:17:03 10° NNE
Envisat 3.7 22:09:02 13° S 22:13:21 50° W 22:18:18 10° NNW
Cosmos 1295 Rocket 4.5 22:07:12 10° S 22:13:30 86° E 22:19:48 10° N
H-2A R/B 3.1 22:12:33 16° SSW 22:15:43 42° W 22:19:45 10° NNW
Cosmos 2151 Rocket 3.8 22:16:23 40° SE 22:17:31 50° E 22:21:54 10° NNE
SEDSat Delta rocket 4.4 22:14:26 10° SW 22:16:42 21° SSW 22:16:42 21° SSW
NOAA 11 4.3 22:15:50 33° SE 22:18:14 60° ENE 22:23:39 10° N
CZ-3C R/B 3.9 22:04:29 10° WSW 22:21:06 23° SSW 22:23:56 20° S
COSMOS 2487 3.7 22:18:42 10° NW 22:22:04 37° WSW 22:23:26 26° SSW
APEX 3.8 22:18:24 10° SSW 22:22:12 67° WNW 22:27:12 10° NNE
CZ-4 R/B 3.9 22:17:56 10° NNE 22:22:30 51° E 22:23:30 43° SE
Cosmos 614 Rocket 3.8 22:19:57 10° NNW 22:25:02 79° ENE 22:26:48 42° SSE
MetOp-B 4.4 22:25:26 26° S 22:28:30 66° WSW 22:33:50 10° NNW
CZ-4 SHROUD 4.2 22:32:36 37° WSW 22:32:55 38° W 22:35:51 10° NNW
PSLV R/B 4.4 22:33:21 32° WSW 22:33:35 32° W 22:36:18 10° NNW
Cosmos 2366 rocket 3.9 22:32:19 29° S 22:35:43 77° E 22:42:04 10° N
Cosmos 1140 Rocket 4.1 22:32:20 10° NNW 22:37:18 50° WSW 22:39:36 29° SSW
Okean 1 Rocket 4.4 22:38:39 27° ENE 22:38:39 27° ENE 22:41:38 10° NNE
CZ-4C R/B 3.7 22:41:21 50° ENE 22:41:21 50° ENE 22:45:14 10° N
Landsat 7 3.9 22:40:33 52° ESE 22:41:16 59° ENE 22:45:57 10° N
USA 234 3.5 22:35:31 10° ENE 22:41:41 43° SE 22:43:01 38° SSE
Cosmos 2369 Rocket 4.2 22:45:04 13° ENE 22:45:04 13° ENE 22:46:07 10° ENE
H-2A R/B 2.4 22:42:13 45° ESE 22:43:22 53° ENE 22:48:30 10° N
CZ-4B R/B 3.7 22:42:42 10° N 22:47:35 64° WNW 22:50:13 26° SSW
ARGOS 3.2 22:46:30 41° S 22:48:22 72° WSW 22:53:44 10° NNW
Timation 1 Rocket 4.2 22:46:57 35° S 22:49:36 73° ESE 22:55:36 10° NNE
SL-08 RB Rocket 3.7 22:49:27 58° S 22:50:18 77° WSW 22:54:57 10° NNW
YAOGAN 6 4.4 22:56:01 22° WSW 22:56:34 23° W 22:59:28 10° NW
Terra 1.9 22:56:47 58° E 22:56:58 59° ENE 23:01:40 10° N
SPOT 1/Viking Rocket 4.2 22:57:07 34° SSW 22:58:57 48° W 23:04:00 10° NNW
OAO 3 Rocket 4.0 22:54:55 10° WSW 22:58:13 37° SW 22:58:13 37° SW
ISS -0.1 22:58:01 10° WNW 23:00:01 15° NNW 23:02:00 10° NNE
Meteor 1-20 Rocket 4.1 23:01:01 55° S 23:02:19 87° E 23:07:52 10° N
Spot 4 4.0 23:11:30 62° ENE 23:11:30 62° ENE 23:16:12 10° N
CARTOSAT-1 3.7 23:15:44 71° NNW 23:15:44 71° NNW 23:19:37 10° NNW
Cosmos 1833 Rocket 2.8 23:11:10 10° NNW 23:16:44 64° WSW 23:17:28 58° SSW
Okean 1 4.0 23:15:22 10° N 23:18:36 55° NNW 23:18:36 55° NNW
Cosmos 1727 Rocket 4.3 23:14:32 10° NNW 23:20:36 58° W 23:22:23 43° SW
Lacrosse 5 2.7 23:25:04 40° NE 23:25:04 40° NE 23:28:21 10° NE
USA 229 DEB 4.0 23:25:15 10° NW 23:32:12 57° WSW 23:33:32 50° SSW
USA 229 4.0 23:25:21 10° NW 23:32:19 58° WSW 23:33:38 51° SSW
Iridium 4 Rocket 4.0 23:29:33 10° N 23:35:10 57° ENE 23:35:10 57° ENE
ASTEX 1 3.5 23:33:32 10° N 23:38:12 71° NW 23:38:12 71° NW
BREEZE-M DEB (TANK) 4.3 23:33:32 10° WNW 23:38:18 27° WSW 23:38:18 27° WSW
Cosmos 2082 Rocket 3.4 23:35:12 10° NW 23:40:08 31° WSW 23:40:49 30° WSW
Cosmos 1812 4.5 23:36:47 10° NNW 23:39:21 29° WNW 23:39:21 29° WNW
Meteor 2-4 Rocket 4.0 23:43:18 10° N 23:48:06 54° NE 23:48:06 54° NE
NOSS 3-1 (A) 4.2 23:43:09 10° NNW 23:50:44 64° NE 23:52:37 51° ESE
Cosmos 1821 Rocket 3.8 23:52:03 84° SSW 23:52:17 88° W 23:58:33 10° N
Cosmos 1605 Rocket 4.3 23:53:28 54° ENE 23:53:28 54° ENE 23:59:17 10° NNE
